^^
Saratoga-Weather Station Historical Data
Daily Summary for January 20, 2022 Units:  Metric    English   Both
Daily Weekly Monthly Yearly Custom
  High: Low: Average:
Temperature: 5.3 °C 1.6 °C 3.3 °C
Dew Point: 3.3 °C -1 °C 1.2 °C
Humidity: 96% 70% 86%
Wind Speed: 19.5km/h 1.4km/h 6.7km/h
Wind Gust: 35.4km/h - -
Wind- - West
Pressure: 1032.5 hPa 1024.7 hPa -
Precipitation: 0.2 mm    
Historical Graphs
 
 
Tabular Data for January 20, 2022
Time Temperature Dew Point Pressure Wind Wind Speed Wind Gust Humidity Rainfall Rate (Hourly) solar
00:02 3.5 °C 2.8 °C 1024.7 hPa West 9.7 km/h 16.1 km/h 95% 0.0 mm 0 W/m2
00:07 3.5 °C 2.8 °C 1024.7 hPa WNW 4.7 km/h 11.3 km/h 95% 0.0 mm 0 W/m2
00:12 3.6 °C 2.9 °C 1025.1 hPa West 11.1 km/h 17.7 km/h 95% 0.0 mm 0 W/m2
00:17 3.6 °C 2.9 °C 1025.1 hPa West 9.7 km/h 14.5 km/h 95% 0.0 mm 0 W/m2
00:22 3.6 °C 2.9 °C 1025.1 hPa WSW 14.3 km/h 16.1 km/h 95% 0.0 mm 0 W/m2
00:27 3.6 °C 2.9 °C 1025.1 hPa West 6.4 km/h 11.3 km/h 95% 0.0 mm 0 W/m2
00:32 3.6 °C 2.9 °C 1025.1 hPa WNW 4.7 km/h 12.9 km/h 95% 0.0 mm 0 W/m2
00:37 3.6 °C 2.9 °C 1025.1 hPa West 4.7 km/h 11.3 km/h 95% 0.0 mm 0 W/m2
00:42 3.6 °C 2.9 °C 1025.1 hPa WNW 4.7 km/h 9.7 km/h 95% 0.0 mm 0 W/m2
00:47 3.6 °C 2.9 °C 1025.1 hPa West 4.7 km/h 12.9 km/h 95% 0.0 mm 0 W/m2
00:52 3.7 °C 3 °C 1025.1 hPa West 6.4 km/h 11.3 km/h 95% 0.0 mm 0 W/m2
00:57 3.7 °C 3 °C 1025.1 hPa West 3.2 km/h 12.9 km/h 95% 0.0 mm 0 W/m2
01:02 3.7 °C 3 °C 1025.1 hPa West 4.7 km/h 6.4 km/h 95% 0.0 mm 0 W/m2
01:07 3.8 °C 3.1 °C 1024.7 hPa WSW 4.7 km/h 11.3 km/h 95% 0.0 mm 0 W/m2
01:12 3.7 °C 3 °C 1025.1 hPa WNW 4.7 km/h 6.4 km/h 95% 0.0 mm 0 W/m2
01:17 3.7 °C 3 °C 1025.1 hPa SSW 6.4 km/h 9.7 km/h 95% 0.0 mm 0 W/m2
01:22 3.8 °C 3.2 °C 1025.1 hPa West 11.1 km/h 14.5 km/h 96% 0.0 mm 0 W/m2
01:27 3.9 °C 3.3 °C 1025.1 hPa West 6.4 km/h 12.9 km/h 96% 0.0 mm 0 W/m2
01:32 3.8 °C 3.1 °C 1025.1 hPa West 14.3 km/h 14.5 km/h 95% 0.0 mm 0 W/m2
01:37 3.8 °C 3.1 °C 1025.1 hPa WSW 7.9 km/h 11.3 km/h 95% 0.0 mm 0 W/m2
01:42 3.8 °C 3.1 °C 1025.1 hPa West 6.4 km/h 14.5 km/h 95% 0.0 mm 0 W/m2
01:47 3.7 °C 3 °C 1025.4 hPa WSW 6.4 km/h 12.9 km/h 95% 0.0 mm 0 W/m2
01:52 3.7 °C 3 °C 1025.1 hPa WNW 6.4 km/h 12.9 km/h 95% 0.0 mm 0 W/m2
01:57 3.7 °C 3 °C 1025.4 hPa WNW 4.7 km/h 16.1 km/h 95% 0.0 mm 0 W/m2
02:02 3.7 °C 3 °C 1025.4 hPa WSW 3.2 km/h 11.3 km/h 95% 0.0 mm 0 W/m2
02:07 3.7 °C 2.8 °C 1025.4 hPa West 3.2 km/h 11.3 km/h 94% 0.0 mm 0 W/m2
02:12 3.7 °C 2.8 °C 1025.4 hPa NW 4.7 km/h 12.9 km/h 94% 0.0 mm 0 W/m2
02:17 3.7 °C 2.8 °C 1025.4 hPa WNW 4.7 km/h 6.4 km/h 94% 0.0 mm 0 W/m2
02:22 3.7 °C 2.8 °C 1025.4 hPa WNW 11.1 km/h 12.9 km/h 94% 0.0 mm 0 W/m2
02:27 3.8 °C 2.9 °C 1025.7 hPa West 6.4 km/h 11.3 km/h 94% 0.2 mm 0 W/m2
02:32 3.8 °C 3.1 °C 1025.4 hPa WNW 13 km/h 17.7 km/h 95% 0.2 mm 0 W/m2
02:37 3.9 °C 3 °C 1025.4 hPa WNW 13 km/h 14.5 km/h 94% 0.2 mm 0 W/m2
02:42 3.9 °C 3 °C 1025.7 hPa West 9.7 km/h 14.5 km/h 94% 0.2 mm 0 W/m2
02:47 3.9 °C 3 °C 1025.4 hPa WSW 6.4 km/h 14.5 km/h 94% 0.2 mm 0 W/m2
02:52 3.8 °C 2.9 °C 1025.7 hPa WSW 6.4 km/h 11.3 km/h 94% 0.2 mm 0 W/m2
02:57 3.8 °C 2.9 °C 1025.7 hPa WNW 6.4 km/h 16.1 km/h 94% 0.2 mm 0 W/m2
03:02 3.8 °C 2.9 °C 1025.7 hPa WSW 13 km/h 14.5 km/h 94% 0.2 mm 0 W/m2
03:07 3.9 °C 3 °C 1026.1 hPa West 6.4 km/h 12.9 km/h 94% 0.2 mm 0 W/m2
03:12 3.9 °C 2.9 °C 1025.7 hPa West 4.7 km/h 14.5 km/h 93% 0.2 mm 0 W/m2
03:17 3.8 °C 2.8 °C 1025.7 hPa West 6.4 km/h 6.4 km/h 93% 0.2 mm 0 W/m2
03:22 3.8 °C 2.8 °C 1025.7 hPa West 4.7 km/h 6.4 km/h 93% 0.2 mm 0 W/m2
03:27 3.8 °C 2.8 °C 1025.7 hPa West 3.2 km/h 9.7 km/h 93% 0.0 mm 0 W/m2
03:32 3.7 °C 2.7 °C 1025.7 hPa West 1.4 km/h 6.4 km/h 93% 0.0 mm 0 W/m2
03:37 3.7 °C 2.7 °C 1026.1 hPa WNW 4.7 km/h 6.4 km/h 93% 0.0 mm 0 W/m2
03:42 3.7 °C 2.7 °C 1026.1 hPa West 9.7 km/h 9.7 km/h 93% 0.0 mm 0 W/m2
03:47 3.7 °C 2.7 °C 1025.7 hPa West 3.2 km/h 3.2 km/h 93% 0.0 mm 0 W/m2
03:52 3.7 °C 2.7 °C 1025.7 hPa West 1.4 km/h 4.8 km/h 93% 0.0 mm 0 W/m2
03:57 3.6 °C 2.6 °C 1025.7 hPa West 3.2 km/h 3.2 km/h 93% 0.0 mm 0 W/m2
04:02 3.6 °C 2.6 °C 1026.1 hPa WNW 4.7 km/h 6.4 km/h 93% 0.0 mm 0 W/m2
04:07 3.5 °C 2.5 °C 1025.7 hPa West 1.4 km/h 3.2 km/h 93% 0.0 mm 0 W/m2
04:12 3.4 °C 2.4 °C 1026.1 hPa WSW 3.2 km/h 6.4 km/h 93% 0.0 mm 0 W/m2
04:17 3.3 °C 2.3 °C 1025.7 hPa West 3.2 km/h 6.4 km/h 93% 0.0 mm 0 W/m2
04:22 3.2 °C 2.2 °C 1026.1 hPa WNW 3.2 km/h 8 km/h 93% 0.0 mm 0 W/m2
04:27 3.2 °C 2.2 °C 1026.1 hPa West 3.2 km/h 4.8 km/h 93% 0.0 mm 0 W/m2
04:32 3.1 °C 2.1 °C 1026.1 hPa WSW 3.2 km/h 8 km/h 93% 0.0 mm 0 W/m2
04:37 3 °C 2 °C 1026.1 hPa West 11.1 km/h 11.3 km/h 93% 0.0 mm 0 W/m2
04:42 3 °C 2 °C 1025.7 hPa West 3.2 km/h 9.7 km/h 93% 0.0 mm 0 W/m2
04:47 3 °C 2 °C 1026.1 hPa West 3.2 km/h 9.7 km/h 93% 0.0 mm 0 W/m2
04:52 2.9 °C 1.7 °C 1026.1 hPa WNW 3.2 km/h 12.9 km/h 92% 0.0 mm 0 W/m2
04:57 2.9 °C 1.7 °C 1026.1 hPa WNW 4.7 km/h 6.4 km/h 92% 0.0 mm 0 W/m2
05:02 2.9 °C 1.7 °C 1026.1 hPa WNW 4.7 km/h 8 km/h 92% 0.0 mm 0 W/m2
05:07 2.9 °C 1.7 °C 1026.1 hPa West 9.7 km/h 11.3 km/h 92% 0.0 mm 0 W/m2
05:12 2.9 °C 1.9 °C 1026.1 hPa WNW 3.2 km/h 9.7 km/h 93% 0.0 mm 0 W/m2
05:17 2.8 °C 1.6 °C 1026.1 hPa WNW 7.9 km/h 9.7 km/h 92% 0.0 mm 0 W/m2
05:22 2.8 °C 1.6 °C 1026.1 hPa West 4.7 km/h 11.3 km/h 92% 0.0 mm 0 W/m2
05:27 2.8 °C 1.6 °C 1026.1 hPa West 4.7 km/h 9.7 km/h 92% 0.0 mm 0 W/m2
05:32 2.7 °C 1.7 °C 1026.1 hPa NW 6.4 km/h 11.3 km/h 93% 0.0 mm 0 W/m2
05:38 2.7 °C 1.7 °C 1026.1 hPa West 3.2 km/h 12.9 km/h 93% 0.0 mm 0 W/m2
05:43 2.7 °C 1.7 °C 1026.4 hPa WNW 6.4 km/h 14.5 km/h 93% 0.0 mm 0 W/m2
05:48 2.8 °C 1.8 °C 1026.1 hPa WNW 7.9 km/h 12.9 km/h 93% 0.0 mm 0 W/m2
05:53 2.8 °C 1.8 °C 1026.1 hPa WSW 4.7 km/h 9.7 km/h 93% 0.0 mm 0 W/m2
05:58 2.8 °C 1.6 °C 1026.1 hPa West 6.4 km/h 9.7 km/h 92% 0.0 mm 0 W/m2
06:03 2.7 °C 1.7 °C 1026.1 hPa WNW 6.4 km/h 11.3 km/h 93% 0.0 mm 0 W/m2
06:08 2.6 °C 1.6 °C 1026.1 hPa WNW 3.2 km/h 9.7 km/h 93% 0.0 mm 0 W/m2
06:13 2.6 °C 1.6 °C 1026.1 hPa WSW 6.4 km/h 9.7 km/h 93% 0.0 mm 0 W/m2
06:18 2.6 °C 1.6 °C 1026.4 hPa WSW 6.4 km/h 11.3 km/h 93% 0.0 mm 0 W/m2
06:23 2.6 °C 1.6 °C 1026.1 hPa WNW 9.7 km/h 11.3 km/h 93% 0.0 mm 0 W/m2
06:28 2.6 °C 1.6 °C 1026.1 hPa WNW 6.4 km/h 14.5 km/h 93% 0.0 mm 0 W/m2
06:33 2.6 °C 1.6 °C 1026.1 hPa West 14.3 km/h 14.5 km/h 93% 0.0 mm 0 W/m2
06:38 2.6 °C 1.6 °C 1026.1 hPa West 3.2 km/h 16.1 km/h 93% 0.0 mm 0 W/m2
06:43 2.5 °C 1.5 °C 1026.1 hPa NW 14.3 km/h 16.1 km/h 93% 0.0 mm 0 W/m2
06:48 2.5 °C 1.5 °C 1026.1 hPa SW 6.4 km/h 14.5 km/h 93% 0.0 mm 0 W/m2
06:53 2.4 °C 1.4 °C 1026.1 hPa WNW 4.7 km/h 14.5 km/h 93% 0.0 mm 0 W/m2
06:58 2.3 °C 1.3 °C 1026.1 hPa WSW 7.9 km/h 14.5 km/h 93% 0.0 mm 0 W/m2
07:03 2.3 °C 1.3 °C 1026.4 hPa West 14.3 km/h 17.7 km/h 93% 0.0 mm 0 W/m2
07:08 2.3 °C 1.3 °C 1026.4 hPa West 11.1 km/h 16.1 km/h 93% 0.0 mm 0 W/m2
07:13 2.3 °C 1.3 °C 1026.8 hPa WNW 7.9 km/h 14.5 km/h 93% 0.0 mm 0 W/m2
07:18 2.3 °C 1.3 °C 1026.8 hPa WNW 7.9 km/h 14.5 km/h 93% 0.0 mm 0 W/m2
07:23 2.3 °C 1.3 °C 1026.8 hPa WNW 6.4 km/h 17.7 km/h 93% 0.0 mm 0 W/m2
07:28 2.3 °C 1.3 °C 1026.8 hPa West 11.1 km/h 17.7 km/h 93% 0.0 mm 0 W/m2
07:33 2.4 °C 1.4 °C 1026.4 hPa WSW 16.3 km/h 16.1 km/h 93% 0.0 mm 0 W/m2
07:38 2.5 °C 1.5 °C 1026.4 hPa WSW 6.4 km/h 14.5 km/h 93% 0.0 mm 0 W/m2
07:43 2.5 °C 1.3 °C 1026.1 hPa WSW 7.9 km/h 16.1 km/h 92% 0.0 mm 0 W/m2
07:48 2.4 °C 1.4 °C 1026.4 hPa WNW 11.1 km/h 12.9 km/h 93% 0.0 mm 0 W/m2
07:53 2.4 °C 1.4 °C 1026.8 hPa West 9.7 km/h 12.9 km/h 93% 0.0 mm 0 W/m2
07:58 2.4 °C 1.4 °C 1026.8 hPa West 19.5 km/h 19.3 km/h 93% 0.0 mm 0 W/m2
08:03 2.4 °C 1.4 °C 1026.8 hPa West 6.4 km/h 16.1 km/h 93% 0.0 mm 0 W/m2
08:08 2.3 °C 1.3 °C 1026.8 hPa WNW 16.3 km/h 16.1 km/h 93% 0.0 mm 0 W/m2
08:13 2.3 °C 1.3 °C 1026.8 hPa WNW 7.9 km/h 12.9 km/h 93% 0.0 mm 0 W/m2
08:18 2.2 °C 1.2 °C 1027.1 hPa West 6.4 km/h 11.3 km/h 93% 0.0 mm 0 W/m2
08:23 2.2 °C 1.2 °C 1027.1 hPa West 13 km/h 17.7 km/h 93% 0.0 mm 0 W/m2
08:28 2.2 °C 1.2 °C 1027.1 hPa WNW 14.3 km/h 14.5 km/h 93% 0.0 mm 5 W/m2
08:33 2.3 °C 1.4 °C 1027.1 hPa West 13 km/h 22.5 km/h 94% 0.0 mm 7 W/m2
08:38 2.5 °C 1.5 °C 1027.1 hPa WSW 14.3 km/h 24.1 km/h 93% 0.0 mm 11 W/m2
08:43 2.7 °C 1.7 °C 1027.4 hPa WSW 13 km/h 16.1 km/h 93% 0.0 mm 11 W/m2
08:48 2.7 °C 1.7 °C 1027.4 hPa West 14.3 km/h 17.7 km/h 93% 0.0 mm 11 W/m2
08:53 2.7 °C 1.5 °C 1027.4 hPa WSW 16.3 km/h 16.1 km/h 92% 0.0 mm 11 W/m2
08:58 2.6 °C 1.6 °C 1027.4 hPa West 6.4 km/h 24.1 km/h 93% 0.0 mm 12 W/m2
09:03 2.6 °C 1.4 °C 1027.4 hPa West 6.4 km/h 14.5 km/h 92% 0.0 mm 14 W/m2
09:08 2.5 °C 1.5 °C 1027.4 hPa WSW 13 km/h 17.7 km/h 93% 0.0 mm 16 W/m2
09:13 2.5 °C 1.5 °C 1027.4 hPa WSW 7.9 km/h 14.5 km/h 93% 0.0 mm 19 W/m2
09:18 2.5 °C 1.5 °C 1027.8 hPa West 4.7 km/h 16.1 km/h 93% 0.0 mm 25 W/m2
09:23 2.5 °C 1.3 °C 1027.4 hPa WNW 4.7 km/h 17.7 km/h 92% 0.0 mm 23 W/m2
09:28 2.6 °C 1.4 °C 1027.4 hPa West 11.1 km/h 16.1 km/h 92% 0.0 mm 32 W/m2
09:33 2.6 °C 1.6 °C 1027.8 hPa WSW 13 km/h 16.1 km/h 93% 0.0 mm 51 W/m2
09:38 2.7 °C 1.5 °C 1027.8 hPa West 3.2 km/h 12.9 km/h 92% 0.0 mm 44 W/m2
09:43 2.7 °C 1.5 °C 1027.8 hPa West 6.4 km/h 14.5 km/h 92% 0.0 mm 46 W/m2
09:48 2.8 °C 1.6 °C 1027.8 hPa West 9.7 km/h 11.3 km/h 92% 0.0 mm 46 W/m2
09:53 2.8 °C 1.6 °C 1027.8 hPa SW 14.3 km/h 17.7 km/h 92% 0.0 mm 44 W/m2
09:58 2.9 °C 1.7 °C 1027.8 hPa WSW 6.4 km/h 8 km/h 92% 0.0 mm 42 W/m2
10:03 2.9 °C 1.7 °C 1027.8 hPa WSW 4.7 km/h 12.9 km/h 92% 0.0 mm 35 W/m2
10:08 2.9 °C 1.6 °C 1027.8 hPa West 9.7 km/h 12.9 km/h 91% 0.0 mm 28 W/m2
10:13 2.9 °C 1.6 °C 1027.8 hPa WNW 3.2 km/h 12.9 km/h 91% 0.0 mm 42 W/m2
10:18 3.1 °C 1.8 °C 1027.8 hPa West 11.1 km/h 16.1 km/h 91% 0.0 mm 70 W/m2
10:23 3.2 °C 1.9 °C 1027.8 hPa SW 11.1 km/h 12.9 km/h 91% 0.0 mm 33 W/m2
10:28 3.3 °C 2 °C 1027.8 hPa West 6.4 km/h 14.5 km/h 91% 0.0 mm 47 W/m2
10:33 3.3 °C 2 °C 1027.8 hPa WSW 16.3 km/h 20.9 km/h 91% 0.0 mm 72 W/m2
10:38 3.3 °C 2 °C 1027.8 hPa NW 13 km/h 14.5 km/h 91% 0.0 mm 98 W/m2
10:43 3.2 °C 1.9 °C 1027.8 hPa WSW 13 km/h 12.9 km/h 91% 0.0 mm 62 W/m2
10:53 3.2 °C 1.9 °C 1027.8 hPa WNW 4.7 km/h 12.9 km/h 91% 0.0 mm 130 W/m2
10:58 3.3 °C 2.1 °C 1028.1 hPa West 11.1 km/h 12.9 km/h 92% 0.0 mm 148 W/m2
11:03 3.5 °C 2.3 °C 1028.1 hPa West 4.7 km/h 19.3 km/h 92% 0.0 mm 137 W/m2
11:08 3.7 °C 2.5 °C 1028.1 hPa West 11.1 km/h 16.1 km/h 92% 0.0 mm 123 W/m2
11:13 3.8 °C 2.5 °C 1028.1 hPa West 3.2 km/h 19.3 km/h 91% 0.0 mm 113 W/m2
11:18 3.9 °C 2.6 °C 1028.5 hPa West 9.7 km/h 16.1 km/h 91% 0.0 mm 109 W/m2
11:23 4 °C 2.7 °C 1028.5 hPa WNW 9.7 km/h 14.5 km/h 91% 0.0 mm 114 W/m2
11:28 4.1 °C 2.8 °C 1028.5 hPa NW 7.9 km/h 14.5 km/h 91% 0.0 mm 137 W/m2
11:33 4.3 °C 2.8 °C 1028.5 hPa WNW 6.4 km/h 8 km/h 90% 0.0 mm 120 W/m2
11:38 4.5 °C 2.8 °C 1028.5 hPa West 11.1 km/h 19.3 km/h 89% 0.0 mm 113 W/m2
11:43 4.6 °C 2.9 °C 1028.5 hPa WNW 16.3 km/h 19.3 km/h 89% 0.0 mm 111 W/m2
11:48 4.7 °C 2.9 °C 1028.5 hPa West 11.1 km/h 14.5 km/h 88% 0.0 mm 95 W/m2
11:53 4.7 °C 2.7 °C 1028.5 hPa WNW 7.9 km/h 17.7 km/h 87% 0.0 mm 102 W/m2
11:58 4.7 °C 2.7 °C 1028.5 hPa West 13 km/h 14.5 km/h 87% 0.0 mm 123 W/m2
12:03 4.7 °C 2.6 °C 1028.5 hPa WNW 13 km/h 19.3 km/h 86% 0.0 mm 125 W/m2
12:08 4.7 °C 2.7 °C 1028.5 hPa NW 14.3 km/h 14.5 km/h 87% 0.0 mm 118 W/m2
12:13 4.7 °C 2.6 °C 1028.5 hPa West 3.2 km/h 6.4 km/h 86% 0.0 mm 125 W/m2
12:18 4.8 °C 2.5 °C 1028.5 hPa NW 4.7 km/h 16.1 km/h 85% 0.0 mm 105 W/m2
12:23 4.8 °C 2.3 °C 1028.5 hPa NNW 3.2 km/h 11.3 km/h 84% 0.0 mm 81 W/m2
12:28 4.8 °C 2.2 °C 1028.5 hPa WSW 11.1 km/h 16.1 km/h 83% 0.0 mm 70 W/m2
12:33 4.8 °C 2 °C 1028.5 hPa WNW 13 km/h 12.9 km/h 82% 0.0 mm 79 W/m2
12:38 4.9 °C 2.3 °C 1028.5 hPa WNW 3.2 km/h 8 km/h 83% 0.0 mm 130 W/m2
12:43 5.2 °C 2.2 °C 1028.5 hPa WSW 14.3 km/h 19.3 km/h 81% 0.0 mm 155 W/m2
12:48 5.3 °C 2.1 °C 1028.5 hPa WNW 7.9 km/h 17.7 km/h 80% 0.0 mm 134 W/m2
12:53 5.3 °C 2 °C 1028.5 hPa NW 6.4 km/h 14.5 km/h 79% 0.0 mm 100 W/m2
12:58 5.2 °C 1.7 °C 1028.5 hPa WSW 13 km/h 20.9 km/h 78% 0.0 mm 88 W/m2
13:03 5.1 °C 1.8 °C 1028.5 hPa NW 13 km/h 16.1 km/h 79% 0.0 mm 83 W/m2
13:08 5 °C 1.7 °C 1028.5 hPa NW 4.7 km/h 20.9 km/h 79% 0.0 mm 67 W/m2
13:13 5 °C 1.7 °C 1028.5 hPa WNW 7.9 km/h 14.5 km/h 79% 0.0 mm 77 W/m2
13:18 5.1 °C 1.8 °C 1028.5 hPa WNW 3.2 km/h 14.5 km/h 79% 0.0 mm 116 W/m2
13:23 5.2 °C 1.1 °C 1028.5 hPa NNW 16.3 km/h 22.5 km/h 75% 0.0 mm 98 W/m2
13:28 5.1 °C 0.7 °C 1028.8 hPa North 14.3 km/h 25.7 km/h 73% 0.0 mm 90 W/m2
13:33 5 °C 0.8 °C 1028.5 hPa West 9.7 km/h 20.9 km/h 74% 0.0 mm 120 W/m2
13:38 5 °C 0.6 °C 1028.5 hPa West 13 km/h 25.7 km/h 73% 0.0 mm 81 W/m2
13:43 5 °C 0.8 °C 1028.5 hPa NNE 4.7 km/h 9.7 km/h 74% 0.0 mm 104 W/m2
13:48 5 °C 0.4 °C 1028.5 hPa NW 4.7 km/h 12.9 km/h 72% 0.0 mm 77 W/m2
13:53 5 °C 0.8 °C 1028.5 hPa WNW 3.2 km/h 16.1 km/h 74% 0.0 mm 118 W/m2
13:58 5 °C 0.4 °C 1028.5 hPa NW 3.2 km/h 17.7 km/h 72% 0.0 mm 67 W/m2
14:03 4.9 °C 0.3 °C 1028.5 hPa WNW 6.4 km/h 20.9 km/h 72% 0.0 mm 56 W/m2
14:08 4.9 °C 0.1 °C 1028.5 hPa NW 7.9 km/h 11.3 km/h 71% 0.0 mm 83 W/m2
14:13 4.9 °C 0.3 °C 1028.5 hPa West 1.4 km/h 20.9 km/h 72% 0.0 mm 74 W/m2
14:18 4.9 °C 0.3 °C 1028.5 hPa WNW 4.7 km/h 9.7 km/h 72% 0.0 mm 91 W/m2
14:23 4.9 °C 0.5 °C 1028.5 hPa NW 7.9 km/h 16.1 km/h 73% 0.0 mm 120 W/m2
14:28 4.9 °C 0.1 °C 1028.8 hPa NNW 7.9 km/h 19.3 km/h 71% 0.0 mm 86 W/m2
14:33 4.8 °C -0.2 °C 1028.5 hPa NW 3.2 km/h 9.7 km/h 70% 0.0 mm 76 W/m2
14:38 4.8 °C -0.2 °C 1028.5 hPa North 7.9 km/h 35.4 km/h 70% 0.0 mm 67 W/m2
14:43 4.8 °C 0 °C 1028.5 hPa NNW 7.9 km/h 17.7 km/h 71% 0.0 mm 67 W/m2
14:48 4.7 °C 0.1 °C 1028.5 hPa WNW 6.4 km/h 25.7 km/h 72% 0.0 mm 58 W/m2
14:53 4.7 °C 0.1 °C 1028.5 hPa WNW 14.3 km/h 14.5 km/h 72% 0.0 mm 58 W/m2
14:58 4.5 °C -0.3 °C 1028.5 hPa NNW 6.4 km/h 20.9 km/h 71% 0.0 mm 54 W/m2
15:03 4.3 °C -0.3 °C 1028.5 hPa WNW 6.4 km/h 16.1 km/h 72% 0.0 mm 56 W/m2
15:08 4.2 °C -0.4 °C 1028.8 hPa WNW 11.1 km/h 14.5 km/h 72% 0.0 mm 60 W/m2
15:13 4.1 °C -0.5 °C 1028.8 hPa NW 6.4 km/h 14.5 km/h 72% 0.0 mm 56 W/m2
15:18 4.1 °C -0.3 °C 1028.8 hPa WNW 4.7 km/h 11.3 km/h 73% 0.0 mm 62 W/m2
15:23 4 °C -0.2 °C 1029.1 hPa West 6.4 km/h 9.7 km/h 74% 0.0 mm 54 W/m2
15:28 3.9 °C -0.3 °C 1029.1 hPa WNW 4.7 km/h 6.4 km/h 74% 0.0 mm 63 W/m2
15:33 3.9 °C -0.1 °C 1029.1 hPa WNW 6.4 km/h 11.3 km/h 75% 0.0 mm 58 W/m2
15:38 3.9 °C -0.1 °C 1029.1 hPa NW 6.4 km/h 6.4 km/h 75% 0.0 mm 56 W/m2
15:43 3.9 °C -0.1 °C 1029.1 hPa WNW 4.7 km/h 12.9 km/h 75% 0.0 mm 53 W/m2
15:48 3.9 °C -0.1 °C 1029.1 hPa WNW 4.7 km/h 9.7 km/h 75% 0.0 mm 56 W/m2
15:53 3.8 °C -0.2 °C 1029.1 hPa NW 3.2 km/h 12.9 km/h 75% 0.0 mm 76 W/m2
15:58 3.9 °C -0.1 °C 1029.1 hPa West 9.7 km/h 12.9 km/h 75% 0.0 mm 40 W/m2
16:03 3.9 °C -0.1 °C 1029.1 hPa West 6.4 km/h 9.7 km/h 75% 0.0 mm 35 W/m2
16:08 3.9 °C -0.1 °C 1029.1 hPa WNW 6.4 km/h 12.9 km/h 75% 0.0 mm 30 W/m2
16:13 3.9 °C -0.1 °C 1029.1 hPa WNW 3.2 km/h 8 km/h 75% 0.0 mm 28 W/m2
16:18 3.9 °C -0.1 °C 1029.5 hPa WNW 7.9 km/h 16.1 km/h 75% 0.0 mm 25 W/m2
16:23 4 °C -0.2 °C 1029.5 hPa WNW 3.2 km/h 12.9 km/h 74% 0.0 mm 21 W/m2
16:28 4.1 °C -0.5 °C 1029.5 hPa WNW 6.4 km/h 11.3 km/h 72% 0.0 mm 16 W/m2
16:33 4.1 °C -0.5 °C 1029.5 hPa WNW 4.7 km/h 9.7 km/h 72% 0.0 mm 11 W/m2
16:38 4 °C -0.6 °C 1029.5 hPa NW 6.4 km/h 16.1 km/h 72% 0.0 mm 9 W/m2
16:43 3.9 °C -0.7 °C 1029.5 hPa West 13 km/h 14.5 km/h 72% 0.0 mm 7 W/m2
16:48 3.9 °C -0.7 °C 1029.5 hPa NW 7.9 km/h 16.1 km/h 72% 0.0 mm 0 W/m2
16:53 3.8 °C -0.8 °C 1029.5 hPa WNW 6.4 km/h 8 km/h 72% 0.0 mm 0 W/m2
16:58 3.8 °C -1 °C 1029.5 hPa NW 4.7 km/h 12.9 km/h 71% 0.0 mm 0 W/m2
17:03 3.8 °C -0.8 °C 1029.5 hPa West 9.7 km/h 9.7 km/h 72% 0.0 mm 0 W/m2
17:08 3.8 °C -0.8 °C 1029.5 hPa WNW 3.2 km/h 12.9 km/h 72% 0.0 mm 0 W/m2
17:13 3.7 °C -0.9 °C 1029.5 hPa NW 4.7 km/h 8 km/h 72% 0.0 mm 0 W/m2
17:18 3.7 °C -0.7 °C 1029.8 hPa NW 1.4 km/h 12.9 km/h 73% 0.0 mm 0 W/m2
17:23 3.7 °C -0.5 °C 1029.5 hPa WNW 3.2 km/h 9.7 km/h 74% 0.0 mm 0 W/m2
17:28 3.6 °C -0.6 °C 1029.5 hPa WNW 1.4 km/h 9.7 km/h 74% 0.0 mm 0 W/m2
17:33 3.4 °C -0.8 °C 1029.8 hPa WNW 1.4 km/h 11.3 km/h 74% 0.0 mm 0 W/m2
17:38 3.4 °C -0.6 °C 1029.8 hPa WNW 3.2 km/h 9.7 km/h 75% 0.0 mm 0 W/m2
17:43 3.3 °C -0.5 °C 1030.1 hPa West 1.4 km/h 6.4 km/h 76% 0.0 mm 0 W/m2
17:48 3.3 °C -0.5 °C 1030.1 hPa West 4.7 km/h 11.3 km/h 76% 0.0 mm 0 W/m2
17:53 3.2 °C -0.4 °C 1030.1 hPa WNW 4.7 km/h 4.8 km/h 77% 0.0 mm 0 W/m2
17:58 3.2 °C -0.4 °C 1030.1 hPa West 6.4 km/h 12.9 km/h 77% 0.0 mm 0 W/m2
18:03 3.2 °C -0.3 °C 1030.1 hPa West 6.4 km/h 11.3 km/h 78% 0.0 mm 0 W/m2
18:08 3.2 °C -0.3 °C 1030.1 hPa WNW 4.7 km/h 12.9 km/h 78% 0.0 mm 0 W/m2
18:13 3.2 °C -0.3 °C 1030.1 hPa WNW 3.2 km/h 9.7 km/h 78% 0.0 mm 0 W/m2
18:18 3.1 °C -0.4 °C 1030.1 hPa West 3.2 km/h 9.7 km/h 78% 0.0 mm 0 W/m2
18:23 3.1 °C -0.2 °C 1030.1 hPa WNW 3.2 km/h 6.4 km/h 79% 0.0 mm 0 W/m2
18:28 3.1 °C -0.2 °C 1030.1 hPa WNW 4.7 km/h 6.4 km/h 79% 0.0 mm 0 W/m2
18:33 2.9 °C -0.4 °C 1030.5 hPa WNW 1.4 km/h 6.4 km/h 79% 0.0 mm 0 W/m2
18:38 2.9 °C -0.2 °C 1030.5 hPa West 4.7 km/h 6.4 km/h 80% 0.0 mm 0 W/m2
18:43 2.8 °C -0.3 °C 1030.5 hPa WSW 1.4 km/h 4.8 km/h 80% 0.0 mm 0 W/m2
18:48 2.7 °C -0.4 °C 1030.5 hPa WNW 1.4 km/h 3.2 km/h 80% 0.0 mm 0 W/m2
18:53 2.6 °C -0.5 °C 1030.5 hPa West 4.7 km/h 6.4 km/h 80% 0.0 mm 0 W/m2
18:58 2.6 °C -0.3 °C 1030.5 hPa WNW 3.2 km/h 4.8 km/h 81% 0.0 mm 0 W/m2
19:03 2.6 °C -0.5 °C 1030.5 hPa West 3.2 km/h 4.8 km/h 80% 0.0 mm 0 W/m2
19:08 2.6 °C -0.5 °C 1030.5 hPa WNW 3.2 km/h 6.4 km/h 80% 0.0 mm 0 W/m2
19:13 2.6 °C -0.3 °C 1030.5 hPa WSW 3.2 km/h 6.4 km/h 81% 0.0 mm 0 W/m2
19:18 2.6 °C -0.3 °C 1030.5 hPa West 3.2 km/h 4.8 km/h 81% 0.0 mm 0 W/m2
19:23 2.6 °C -0.3 °C 1030.5 hPa WNW 4.7 km/h 6.4 km/h 81% 0.0 mm 0 W/m2
19:28 2.6 °C -0.3 °C 1030.5 hPa WNW 3.2 km/h 9.7 km/h 81% 0.0 mm 0 W/m2
19:33 2.6 °C -0.3 °C 1030.5 hPa West 1.4 km/h 3.2 km/h 81% 0.0 mm 0 W/m2
19:38 2.6 °C -0.3 °C 1030.5 hPa WNW 1.4 km/h 9.7 km/h 81% 0.0 mm 0 W/m2
19:43 2.7 °C -0.2 °C 1030.5 hPa West 1.4 km/h 6.4 km/h 81% 0.0 mm 0 W/m2
19:48 2.7 °C -0.1 °C 1030.5 hPa West 3.2 km/h 4.8 km/h 82% 0.0 mm 0 W/m2
19:53 2.7 °C -0.1 °C 1030.8 hPa WNW 1.4 km/h 4.8 km/h 82% 0.0 mm 0 W/m2
19:58 2.7 °C -0.1 °C 1030.8 hPa WSW 7.9 km/h 11.3 km/h 82% 0.0 mm 0 W/m2
20:03 2.8 °C 0.2 °C 1030.5 hPa WSW 6.4 km/h 11.3 km/h 83% 0.0 mm 0 W/m2
20:08 2.7 °C 0.1 °C 1030.5 hPa West 1.4 km/h 11.3 km/h 83% 0.0 mm 0 W/m2
20:13 2.7 °C 0.1 °C 1030.8 hPa West 9.7 km/h 9.7 km/h 83% 0.0 mm 0 W/m2
20:18 2.7 °C 0.1 °C 1030.5 hPa WSW 7.9 km/h 12.9 km/h 83% 0.0 mm 0 W/m2
20:23 2.7 °C 0.1 °C 1030.8 hPa WSW 7.9 km/h 9.7 km/h 83% 0.0 mm 0 W/m2
20:28 2.7 °C 0.1 °C 1030.8 hPa West 6.4 km/h 14.5 km/h 83% 0.0 mm 0 W/m2
20:33 2.7 °C 0.1 °C 1030.8 hPa WNW 3.2 km/h 6.4 km/h 83% 0.0 mm 0 W/m2
20:38 2.7 °C 0.3 °C 1030.8 hPa NW 1.4 km/h 6.4 km/h 84% 0.0 mm 0 W/m2
20:43 2.6 °C 0.2 °C 1030.8 hPa WNW 1.4 km/h 6.4 km/h 84% 0.0 mm 0 W/m2
20:48 2.6 °C 0.2 °C 1030.8 hPa West 4.7 km/h 6.4 km/h 84% 0.0 mm 0 W/m2
20:53 2.6 °C 0.3 °C 1030.8 hPa West 6.4 km/h 11.3 km/h 85% 0.0 mm 0 W/m2
20:58 2.5 °C 0.2 °C 1030.8 hPa West 13 km/h 17.7 km/h 85% 0.0 mm 0 W/m2
21:03 2.5 °C 0.2 °C 1030.8 hPa West 6.4 km/h 11.3 km/h 85% 0.0 mm 0 W/m2
21:08 2.5 °C 0.4 °C 1030.8 hPa NW 4.7 km/h 14.5 km/h 86% 0.0 mm 0 W/m2
21:13 2.5 °C 0.4 °C 1031.2 hPa West 6.4 km/h 11.3 km/h 86% 0.0 mm 0 W/m2
21:18 2.4 °C 0.3 °C 1031.2 hPa WSW 4.7 km/h 14.5 km/h 86% 0.0 mm 0 W/m2
21:23 2.4 °C 0.3 °C 1031.2 hPa West 4.7 km/h 9.7 km/h 86% 0.0 mm 0 W/m2
21:28 2.4 °C 0.3 °C 1031.2 hPa NW 1.4 km/h 11.3 km/h 86% 0.0 mm 0 W/m2
21:33 2.4 °C 0.3 °C 1031.2 hPa WNW 3.2 km/h 6.4 km/h 86% 0.0 mm 0 W/m2
21:38 2.3 °C 0.2 °C 1031.2 hPa NW 6.4 km/h 11.3 km/h 86% 0.0 mm 0 W/m2
21:43 2.3 °C 0.4 °C 1031.5 hPa NW 4.7 km/h 6.4 km/h 87% 0.0 mm 0 W/m2
21:48 2.2 °C 0.3 °C 1031.2 hPa West 6.4 km/h 11.3 km/h 87% 0.0 mm 0 W/m2
21:53 2.2 °C 0.3 °C 1031.5 hPa WSW 4.7 km/h 8 km/h 87% 0.0 mm 0 W/m2
21:58 2.1 °C 0.2 °C 1031.5 hPa WNW 6.4 km/h 6.4 km/h 87% 0.0 mm 0 W/m2
22:03 2.1 °C 0.2 °C 1031.5 hPa WNW 3.2 km/h 3.2 km/h 87% 0.0 mm 0 W/m2
22:08 2.1 °C 0.3 °C 1031.2 hPa WNW 3.2 km/h 8 km/h 88% 0.0 mm 0 W/m2
22:13 2.1 °C 0.3 °C 1031.5 hPa WNW 3.2 km/h 4.8 km/h 88% 0.0 mm 0 W/m2
22:18 2.1 °C 0.3 °C 1031.5 hPa West 4.7 km/h 8 km/h 88% 0.0 mm 0 W/m2
22:23 2.1 °C 0.3 °C 1031.5 hPa West 6.4 km/h 9.7 km/h 88% 0.0 mm 0 W/m2
22:28 2.2 °C 0.4 °C 1031.5 hPa NW 4.7 km/h 9.7 km/h 88% 0.0 mm 0 W/m2
22:33 2.3 °C 0.4 °C 1031.8 hPa West 3.2 km/h 11.3 km/h 87% 0.0 mm 0 W/m2
22:38 2.3 °C 0.4 °C 1031.8 hPa WNW 4.7 km/h 6.4 km/h 87% 0.0 mm 0 W/m2
22:43 2.3 °C 0.4 °C 1031.8 hPa West 6.4 km/h 11.3 km/h 87% 0.0 mm 0 W/m2
22:48 2.3 °C 0.4 °C 1031.8 hPa WNW 4.7 km/h 12.9 km/h 87% 0.0 mm 0 W/m2
22:53 2.3 °C 0.4 °C 1031.8 hPa WNW 4.7 km/h 8 km/h 87% 0.0 mm 0 W/m2
22:58 2.2 °C 0.3 °C 1031.8 hPa NW 4.7 km/h 9.7 km/h 87% 0.0 mm 0 W/m2
23:03 2.1 °C 0 °C 1031.8 hPa WSW 7.9 km/h 8 km/h 86% 0.0 mm 0 W/m2
23:08 2 °C 0.1 °C 1031.8 hPa West 4.7 km/h 9.7 km/h 87% 0.0 mm 0 W/m2
23:13 1.9 °C 0 °C 1032.2 hPa WNW 6.4 km/h 6.4 km/h 87% 0.0 mm 0 W/m2
23:18 1.8 °C -0.1 °C 1031.8 hPa West 4.7 km/h 6.4 km/h 87% 0.0 mm 0 W/m2
23:24 1.8 °C -0.1 °C 1031.8 hPa West 3.2 km/h 4.8 km/h 87% 0.0 mm 0 W/m2
23:29 1.8 °C -0.1 °C 1031.8 hPa WNW 9.7 km/h 11.3 km/h 87% 0.0 mm 0 W/m2
23:34 1.8 °C -0.1 °C 1031.8 hPa WSW 4.7 km/h 9.7 km/h 87% 0.0 mm 0 W/m2
23:39 1.8 °C -0.1 °C 1032.2 hPa WNW 3.2 km/h 11.3 km/h 87% 0.0 mm 0 W/m2
23:44 1.8 °C -0.1 °C 1032.2 hPa NW 1.4 km/h 6.4 km/h 87% 0.0 mm 0 W/m2
23:49 1.8 °C -0.1 °C 1032.2 hPa West 4.7 km/h 4.8 km/h 87% 0.0 mm 0 W/m2
23:54 1.7 °C -0.2 °C 1032.2 hPa WNW 4.7 km/h 9.7 km/h 87% 0.0 mm 0 W/m2
23:59 1.6 °C -0.3 °C 1032.5 hPa WNW 4.7 km/h 6.4 km/h 87% 0.0 mm 0 W/m2
Juneau County Weather
Compliments of Weather Underground - 4 mb